Terminal Aerodrome Forecast
Issued by NWS Wilmington, OH

Home | Current Version | Previous Version | Text Only | Print | Product List | Glossary On
Versions: 1 2 3 4 5 6 7 8 9 10 11 12 13 14 15 16 17 18 19 20 21 22 23 24 25 26 27 28 29 30 31
000
FTUS41 KILN 191051 AAB
TAFCVG
TAF AMD
KCVG 191051Z 1911/2012 11004KT P6SM OVC250
     FM191600 12007KT P6SM OVC120
     FM192300 12009KT P6SM VCSH OVC040
     FM200100 11010KT 5SM -RA BR OVC020
     FM200600 15006KT 3SM -RA BR OVC008=

USA.gov is the U.S. government's official web portal to all federal, state and local government web resources and services.